Weather observations for the past three days for
Allentown Queen City Municipal Airport
Imperial (Metric)
Date Time (edt) Wind (mph) Vis. (mi.) Weather Sky Cond. Temperature (ºF) Relative Humidity Wind Chill (°F) Heat Index (°F) Pressure Precipitation (in)
Air Dwpt 6 hour altimeter (in) sea level (mb) 1 hr 3 hr 6 hr
Max. Min.
13 22:35 Calm 10.00 Fair CLR 78.8 71.6 79% 82 30.1 0.0
13 22:15 Calm 10.00 Fair CLR 78.8 71.6 79% 82 30.11 0.0
13 21:55 Calm 10.00 Fair CLR 80.6 69.8 70% 84 30.1 0.0
13 21:35 E 3 10.00 Fair CLR 80.6 69.8 70% 84 30.09 0.0
13 21:15 Calm 10.00 Fair CLR 82.4 69.8 66% 86 30.09 0.0
13 20:55 SE 3 10.00 NULL NULL 80.6 69.8 70% 84 30.08 0.0
13 20:35 E 6 10.00 NULL NULL 82.4 69.8 66% 86 30.08 0.0
13 20:15 Calm 10.00 NULL NULL 84.2 69.8 62% 88 30.09 0.0
13 19:55 SW 6 10.00 NULL NULL 86 69.8 59% 91 30.09 0.0
13 19:35 SW 5 10.00 NULL NULL 86 69.8 59% 91 30.09 0.0
13 19:15 S 6 10.00 NULL NULL 87.8 71.6 59% 94 30.09 0.0
13 18:55 SW 7 10.00 NULL NULL 87.8 69.8 55% 93 30.09 0.0
13 18:35 SW 7 10.00 NULL NULL 87.8 69.8 55% 93 30.08 0.0
13 18:15 SW 7 10.00 NULL NULL 87.8 69.8 55% 93 30.08 0.0
13 17:55 S 6 10.00 NULL NULL 89.6 69.8 52% 95 30.08 0.0
13 17:35 S 6 10.00 NULL NULL 87.8 69.8 55% 93 30.08 0.0
13 17:15 SW 7 10.00 NULL NULL 87.8 69.8 55% 93 30.08 0.0
13 16:55 SW 7 10.00 NULL NULL 89.6 71.6 55% 96 30.09 0.0
13 16:35 Calm 10.00 NULL NULL 87.8 69.8 55% 93 30.09 0.0
13 16:15 SW 7 10.00 NULL NULL 89.6 69.8 52% 95 30.09 0.0
13 15:55 W 6 10.00 NULL NULL 87.8 71.6 59% 94 30.1 0.0
13 15:35 W 3 10.00 NULL NULL 89.6 69.8 52% 95 30.11 0.0
13 15:15 Calm 10.00 NULL NULL 89.6 71.6 55% 96 30.11 0.0
13 14:35 Calm 10.00 NULL NULL 87.8 69.8 55% 93 30.12 0.0
13 14:15 W 3 10.00 NULL NULL 87.8 69.8 55% 93 30.12 0.0
13 13:55 Calm 10.00 NULL NULL 87.8 69.8 55% 93 30.13 0.0
13 13:35 Calm 10.00 NULL NULL 86 68 55% 89 30.14 0.0
13 13:15 Calm 10.00 NULL NULL 86 71.6 62% 92 30.15 0.0
13 12:55 W 5 10.00 NULL NULL 86 71.6 62% 92 30.15 0.0
13 12:35 Calm 10.00 NULL NULL 86 71.6 62% 92 30.16 0.0
13 12:15 SW 6 10.00 Partly Cloudy SCT024 SCT031 84.2 71.6 66% 90 30.17 0.0
13 11:55 SW 3 10.00 Partly Cloudy SCT024 SCT030 82.4 71.6 70% 87 30.17 0.0
13 11:35 Calm 10.00 Mostly Cloudy BKN024 BKN030 82.4 71.6 70% 87 30.18 0.0
13 11:15 Calm 10.00 Partly Cloudy SCT020 SCT026 80.6 71.6 74% 85 30.18 0.0
13 10:55 Calm 10.00 Partly Cloudy SCT024 80.6 71.6 74% 85 30.18 0.0
13 10:35 SW 3 10.00 Partly Cloudy SCT026 78.8 71.6 79% 82 30.18 0.0
13 10:15 Calm 10.00 Fair CLR 78.8 71.6 79% 82 30.18 0.0
13 09:55 Calm 10.00 Fair CLR 77 71.6 83% 78 30.19 0.0
13 09:35 Calm 10.00 Fair CLR 77 69.8 79% 79 30.19 0.0
13 09:15 Calm 10.00 Fair CLR 75.2 69.8 83% 75 30.19 0.0
13 08:55 Calm 10.00 Fair CLR 73.4 69.8 89% 30.19 0.0
13 08:35 Calm 10.00 Fair CLR 71.6 69.8 94% 30.2 0.0
13 08:15 Calm 10.00 Fair CLR 71.6 68 88% 30.2 0.0
13 07:55 Calm 10.00 Fair CLR 69.8 68 94% 30.2 0.0
13 07:35 S 3 10.00 Partly Cloudy SCT050 SCT120 69.8 68 94% 30.2 0.0
13 07:15 Calm 10.00 Mostly Cloudy SCT044 BKN050 69.8 68 94% 30.2 0.0
13 06:55 Calm 10.00 Overcast SCT006 SCT021 OVC046 68 68 100% 30.2 0.0
13 06:35 Calm 10.00 Overcast SCT004 BKN048 OVC120 68 68 100% 30.2 0.0
13 06:15 SW 5 10.00 Overcast BKN004 BKN023 OVC090 69.8 68 94% 30.19 0.0
13 05:55 Calm 4.00 Rain SCT004 BKN024 OVC029 71.6 69.8 94% 30.18 0.0 0.57
13 05:35 Calm 2.50 Heavy Rain SCT006 BKN011 OVC017 71.6 71.6 100% 30.18 0.0 0.43
13 05:15 Calm 1.75 Heavy Rain BKN004 BKN010 OVC017 71.6 71.6 100% 30.18 0.0 0.22
13 04:55 SW 6 2.50 Heavy Rain SCT008 BKN012 OVC026 71.6 71.6 100% 30.18 0.0 0.28
13 04:35 Calm 4.00 Rain BKN008 BKN019 OVC033 73.4 71.6 94% 30.18 0.0 0.17
13 04:15 Calm 1.75 Heavy Rain BKN006 BKN013 OVC021 73.4 71.6 94% 30.17 0.0 0.1
13 03:55 Calm 4.00 Light Rain SCT008 OVC013 73.4 71.6 94% 30.17 0.0 0.06
13 03:35 Calm 5.00 Rain OVC013 73.4 71.6 94% 30.18 0.0 0.02
13 03:15 Calm 7.00 Light Rain BKN010 OVC015 73.4 73.4 100% 30.17 0.0 0.01
13 02:55 Calm 7.00 Light Rain OVC008 73.4 71.6 94% 30.17 0.0 0.01
13 02:35 Calm 7.00 Light Rain OVC008 73.4 71.6 94% 30.18 0.0 0.01
13 02:15 SW 3 10.00 Light Rain BKN008 OVC013 73.4 73.4 100% 30.18 0.0
13 01:55 Calm 10.00 Mostly Cloudy SCT008 SCT085 BKN120 73.4 73.4 100% 30.18 0.0
13 01:35 Calm 10.00 Light Rain SCT010 SCT034 SCT070 73.4 71.6 94% 30.18 0.0
13 01:15 SE 3 10.00 Mostly Cloudy SCT010 SCT050 BKN075 73.4 71.6 94% 30.19 0.0
13 00:55 Calm 10.00 Light Rain SCT012 SCT050 BKN120 73.4 71.6 94% 30.19 0.0 0.01
13 00:35 Calm 10.00 Partly Cloudy SCT017 SCT090 SCT110 73.4 71.6 94% 30.2 0.0
13 00:15 Calm 10.00 Overcast SCT017 SCT060 OVC100 73.4 71.6 94% 30.21 0.0
12 23:55 Calm 10.00 Overcast SCT100 OVC120 73.4 71.6 94% 30.2 0.0
12 23:35 Calm 10.00 Mostly Cloudy BKN110 73.4 71.6 94% 30.2 0.0
12 23:15 Calm 10.00 Partly Cloudy SCT060 SCT075 SCT120 73.4 71.6 94% 30.21 0.0
12 22:55 Calm 10.00 Mostly Cloudy BKN060 BKN075 73.4 71.6 94% 30.21 0.0
12 22:35 Calm 10.00 Overcast OVC070 73.4 71.6 94% 30.21 0.0
12 22:15 Calm 10.00 Mostly Cloudy SCT060 SCT075 BKN120 73.4 71.6 94% 30.21 0.0
12 21:55 Calm 10.00 Partly Cloudy SCT120 75.2 71.6 89% 75 30.21 0.0
12 21:35 Calm 10.00 Partly Cloudy SCT030 SCT120 75.2 71.6 89% 75 30.2 0.0
12 21:15 S 3 10.00 Overcast SCT030 OVC120 75.2 71.6 89% 75 30.21 0.0
12 20:55 Calm 10.00 Light Rain BKN110 75.2 71.6 89% 75 30.2 0.0
12 20:35 Calm 10.00 Mostly Cloudy SCT100 BKN120 75.2 71.6 89% 75 30.19 0.0
12 20:15 SW 3 10.00 Fair CLR 75.2 71.6 89% 75 30.19 0.0
12 19:55 Calm 10.00 Fair CLR 77 69.8 79% 79 30.18 0.0
12 19:35 Calm 10.00 Fair CLR 77 69.8 79% 79 30.19 0.0
12 19:15 Calm 10.00 Light Rain CLR 77 69.8 79% 79 30.19 0.0
12 18:55 Calm 10.00 Light Rain SCT055 SCT065 77 69.8 79% 79 30.19 0.0
12 18:35 Calm 10.00 Light Rain BKN055 77 71.6 83% 78 30.19 0.0
12 18:15 SW 3 10.00 Overcast OVC055 78.8 71.6 79% 82 30.18 0.0
12 17:55 S 6 10.00 Overcast SCT019 SCT040 OVC055 78.8 71.6 79% 82 30.18 0.0
12 17:35 SE 6 10.00 Mostly Cloudy SCT019 BKN055 78.8 71.6 79% 82 30.18 0.0
12 17:15 SE 6 10.00 Light Rain SCT024 78.8 69.8 74% 81 30.17 0.0
12 16:55 SE 5 10.00 Light Rain BKN024 BKN075 78.8 69.8 74% 81 30.16 0.0
12 16:35 Calm 10.00 Light Drizzle SCT024 SCT075 80.6 69.8 70% 84 30.16 0.0
12 16:15 Calm 10.00 Light Rain CLR 78.8 68 70% 81 30.16 0.0
12 15:55 NW 5 10.00 Light Rain SCT023 SCT070 78.8 69.8 74% 81 30.17 0.0
12 15:35 W 5 10.00 Mostly Cloudy SCT023 BKN042 BKN070 80.6 69.8 70% 84 30.19 0.0
12 15:15 Calm 10.00 Overcast SCT025 BKN042 OVC070 78.8 69.8 74% 81 30.19 0.0
12 14:55 SW 3 10.00 Light Drizzle BKN025 BKN030 OVC050 78.8 69.8 74% 81 30.2 0.0
12 14:35 W 6 10.00 Overcast OVC027 78.8 69.8 74% 81 30.2 0.0
12 14:15 S 6 10.00 Overcast BKN029 BKN035 OVC045 78.8 68 70% 81 30.2 0.0
12 13:55 S 3 10.00 Mostly Cloudy SCT029 SCT037 BKN045 78.8 68 70% 81 30.2 0.0
12 13:35 Calm 10.00 Partly Cloudy SCT026 SCT055 SCT065 78.8 69.8 74% 81 30.18 0.0
12 13:15 N 8 10.00 Partly Cloudy SCT060 SCT065 78.8 69.8 74% 81 30.15 0.0
12 12:55 W 5 10.00 Fair CLR 78.8 69.8 74% 81 30.19 0.0
12 12:35 W 3 10.00 Light Rain SCT023 SCT055 SCT070 78.8 69.8 74% 81 30.2 0.0
12 12:15 Calm 10.00 Overcast SCT023 BKN030 OVC070 77 69.8 79% 79 30.22 0.0
12 11:55 S 3 10.00 Overcast SCT027 SCT034 OVC070 77 69.8 79% 79 30.22 0.0
12 11:35 S 5 10.00 Mostly Cloudy BKN070 77 69.8 79% 79 30.22 0.0
12 11:15 Calm 10.00 Partly Cloudy SCT070 77 69.8 79% 79 30.2 0.0
12 10:55 Calm 10.00 Fair CLR 75.2 69.8 83% 75 30.18 0.0
12 10:35 NW 3 10.00 Fair CLR 73.4 71.6 94% 30.18 0.0
12 10:15 Calm 10.00 Light Rain SCT029 SCT036 SCT050 73.4 69.8 89% 30.19 0.0
12 09:55 Calm 7.00 Rain SCT028 BKN034 BKN040 73.4 68 83% 30.2 0.0
12 09:35 Calm 10.00 Fair CLR 73.4 68 83% 30.19 0.0
12 09:15 N 3 10.00 Fair CLR 73.4 68 83% 30.17 0.0
12 08:55 NW 3 10.00 Fair CLR 71.6 68 88% 30.17 0.0
12 08:35 Calm 10.00 Fair CLR 71.6 68 88% 30.18 0.0
12 08:15 Calm 10.00 Partly Cloudy SCT110 69.8 68 94% 30.18 0.0
12 07:55 Calm 10.00 Mostly Cloudy BKN110 69.8 68 94% 30.18 0.0
12 07:35 Calm 10.00 Mostly Cloudy BKN110 69.8 68 94% 30.17 0.0
12 07:15 NE 3 10.00 Fair CLR 69.8 68 94% 30.16 0.0
12 06:55 N 3 10.00 Fair CLR 69.8 66.2 88% 30.16 0.0
12 06:35 Calm 10.00 Fair CLR 68 66.2 94% 30.16 0.0
12 06:15 Calm 10.00 Fair CLR 68 64.4 88% 30.16 0.0
12 05:55 Calm 10.00 Fair CLR 66.2 64.4 94% 30.15 0.0
12 05:35 Calm 10.00 Fair CLR 64.4 64.4 100% 30.14 0.0
12 05:15 Calm 10.00 Fair CLR 64.4 64.4 100% 30.14 0.0
12 04:55 Calm 10.00 Fair CLR 64.4 64.4 100% 30.14 0.0
12 04:35 Calm 10.00 Fair CLR 66.2 64.4 94% 30.13 0.0
12 04:15 Calm 10.00 Fair CLR 66.2 64.4 94% 30.12 0.0
12 03:55 Calm 10.00 Fair CLR 66.2 64.4 94% 30.12 0.0
12 03:35 Calm 10.00 Fair CLR 64.4 64.4 100% 30.11 0.0
12 03:15 Calm 10.00 Fair CLR 66.2 64.4 94% 30.11 0.0
12 02:55 Calm 10.00 Fair CLR 68 64.4 88% 30.12 0.0
12 02:35 Calm 10.00 Fair CLR 68 64.4 88% 30.12 0.0
12 02:15 Calm 10.00 Fair CLR 68 64.4 88% 30.12 0.0
12 01:55 Calm 10.00 Fair CLR 68 64.4 88% 30.12 0.0
12 01:35 Calm 10.00 Fair CLR 68 64.4 88% 30.12 0.0
12 01:15 SW 3 10.00 Fair CLR 68 66.2 94% 30.12 0.0
12 00:55 SW 3 10.00 Fair CLR 68 66.2 94% 30.12 0.0
12 00:35 Calm 10.00 Fair CLR 68 66.2 94% 30.12 0.0
12 00:15 Calm 10.00 Fair CLR 69.8 66.2 88% 30.11 0.0
11 23:55 Calm 10.00 Fair CLR 69.8 66.2 88% 30.11 0.0
11 23:35 Calm 10.00 Fair CLR 69.8 66.2 88% 30.11 0.0
11 23:15 Calm 10.00 Fair CLR 69.8 66.2 88% 30.11 0.0
11 22:55 Calm 10.00 Fair CLR 71.6 64.4 78% 30.1 0.0
11 22:35 Calm 10.00 Fair CLR 71.6 64.4 78% 30.09 0.0
11 22:15 Calm 10.00 Fair CLR 71.6 64.4 78% 30.09 0.0
11 21:55 S 3 10.00 Fair CLR 73.4 64.4 74% 30.09 0.0
11 21:35 S 3 10.00 Fair CLR 71.6 64.4 78% 30.09 0.0
11 21:15 S 3 10.00 Fair CLR 73.4 64.4 74% 30.08 0.0
11 20:55 SW 3 10.00 Fair CLR 75.2 64.4 69% 77 30.07 0.0
11 20:35 SW 6 10.00 Partly Cloudy SCT050 75.2 64.4 69% 77 30.07 0.0
11 20:15 SW 5 10.00 Overcast OVC050 77 64.4 65% 79 30.07 0.0
11 19:55 SW 5 10.00 Overcast OVC050 77 64.4 65% 79 30.07 0.0
11 19:35 SW 5 10.00 Overcast OVC050 77 64.4 65% 79 30.06 0.0
11 19:15 SW 5 10.00 Overcast OVC050 78.8 64.4 61% 81 30.06 0.0
11 18:55 SW 5 10.00 Overcast OVC050 78.8 64.4 61% 81 30.05 0.0
11 18:35 SW 6 10.00 Overcast OVC050 78.8 64.4 61% 81 30.04 0.0
11 18:15 SW 8 10.00 Overcast OVC050 78.8 64.4 61% 81 30.04 0.0
11 17:55 SW 6 10.00 Overcast OVC050 78.8 64.4 61% 81 30.04 0.0
11 17:35 SW 6 10.00 Overcast OVC050 78.8 64.4 61% 81 30.03 0.0
11 17:15 W 7 10.00 Overcast OVC048 78.8 64.4 61% 81 30.03 0.0
11 16:55 SW 9 10.00 Overcast OVC046 78.8 64.4 61% 81 30.03 0.0
11 16:35 SW 9 10.00 Overcast OVC044 78.8 64.4 61% 81 30.03 0.0
11 16:15 SW 9 10.00 Overcast OVC044 78.8 64.4 61% 81 30.02 0.0
11 15:55 SW 12 10.00 Overcast OVC044 78.8 64.4 61% 81 30.02 0.0
11 15:35 W 8 10.00 Overcast SCT038 OVC044 78.8 64.4 61% 81 30.01 0.0
11 15:15 SW 9 10.00 Overcast OVC044 78.8 64.4 61% 81 30.01 0.0
11 14:55 W 10 10.00 Overcast OVC042 78.8 64.4 61% 81 30 0.0
11 14:35 SW 12 10.00 Overcast OVC044 78.8 64.4 61% 81 30 0.0
11 14:15 W 10 G 16 10.00 Overcast SCT038 OVC044 78.8 64.4 61% 81 30 0.0
11 13:55 SW 13 10.00 Overcast SCT038 OVC043 78.8 64.4 61% 81 30 0.0
11 13:35 SW 13 10.00 Overcast OVC043 78.8 64.4 61% 81 29.99 0.0
11 13:15 SW 10 G 17 10.00 Overcast OVC041 78.8 64.4 61% 81 29.99 0.0
11 12:55 SW 12 10.00 Overcast OVC041 78.8 64.4 61% 81 29.99 0.0
11 12:35 SW 10 10.00 Overcast OVC041 77 62.6 61% 79 29.99 0.0
11 12:15 SW 10 10.00 Overcast OVC039 78.8 62.6 58% 80 29.99 0.0
11 11:55 SW 12 10.00 Overcast OVC039 78.8 62.6 58% 80 29.99 0.0
11 11:35 SW 13 G 20 10.00 Overcast OVC039 77 62.6 61% 79 29.98 0.0
11 11:15 W 8 G 20 10.00 Overcast OVC039 77 62.6 61% 79 29.97 0.0
11 10:55 W 12 10.00 Overcast OVC037 77 62.6 61% 79 29.96 0.0
11 10:35 W 10 G 16 10.00 Overcast OVC035 77 62.6 61% 79 29.96 0.0
11 10:15 SW 13 G 21 10.00 Partly Cloudy SCT033 SCT041 77 64.4 65% 79 29.96 0.0
11 09:55 W 14 G 20 10.00 Partly Cloudy SCT031 77 64.4 65% 79 29.96 0.0
11 09:35 W 13 G 18 10.00 Fair CLR 77 64.4 65% 79 29.95 0.0
11 09:15 SW 13 10.00 Fair CLR 77 64.4 65% 79 29.95 0.0
11 08:55 SW 9 10.00 Fair CLR 75.2 64.4 69% 77 29.94 0.0
11 08:35 SW 8 10.00 Fair CLR 73.4 64.4 74% 29.94 0.0
11 08:15 SW 6 10.00 Fair CLR 73.4 64.4 74% 29.94 0.0
11 07:55 SW 8 10.00 Fair CLR 71.6 64.4 78% 29.93 0.0
11 07:35 SW 6 10.00 Fair CLR 71.6 64.4 78% 29.93 0.0
11 07:15 Calm 10.00 Fair CLR 71.6 64.4 78% 29.92 0.0
11 06:55 Calm 10.00 Fair CLR 69.8 64.4 83% 29.91 0.0
11 06:35 S 3 10.00 Fair CLR 69.8 64.4 83% 29.9 0.0
11 06:15 SW 5 10.00 Fair CLR 68 64.4 88% 29.9 0.0
11 05:55 S 5 10.00 Fair CLR 69.8 66.2 88% 29.89 0.0
11 05:35 S 5 10.00 Fair CLR 69.8 66.2 88% 29.88 0.0
11 05:15 SW 8 10.00 Fair CLR 69.8 68 94% 29.87 0.0
11 04:55 SW 8 10.00 Fair CLR 69.8 68 94% 29.86 0.0
11 04:35 SW 9 10.00 Fair CLR 71.6 68 88% 29.85 0.0
11 04:15 SW 7 10.00 Fair CLR 71.6 69.8 94% 29.84 0.0
11 03:55 SW 5 10.00 Fair CLR 71.6 69.8 94% 29.83 0.0
11 03:35 SW 6 10.00 Fair CLR 73.4 69.8 89% 29.84 0.0
11 03:15 SW 6 10.00 Partly Cloudy SCT070 73.4 71.6 94% 29.84 0.0
11 02:55 SW 9 10.00 Overcast OVC070 75.2 71.6 89% 75 29.84 0.0
11 02:35 SW 6 10.00 Overcast OVC070 73.4 73.4 100% 29.83 0.0
11 02:15 SW 3 10.00 Mostly Cloudy BKN070 75.2 73.4 94% 74 29.81 0.0
11 01:55 Calm 10.00 Mostly Cloudy BKN060 73.4 73.4 100% 29.81 0.0
11 01:35 S 6 10.00 Thunderstorm in Vicinity BKN070 73.4 73.4 100% 29.82 0.0
11 01:15 Calm 10.00 Mostly Cloudy SCT022 SCT029 BKN060 73.4 73.4 100% 29.81 0.0
11 00:55 Calm 10.00 Mostly Cloudy BKN022 BKN060 73.4 73.4 100% 29.81 0.0 0.15
11 00:35 S 6 10.00 Thunderstorm in Vicinity SCT014 OVC022 73.4 73.4 100% 29.81 0.0 0.15
11 00:15 SE 5 7.00 Thunderstorm Heavy Rain BKN014 OVC019 73.4 73.4 100% 29.82 0.0 0.11
10 23:55 SW 6 0.75 Thunderstorm Heavy Rain BKN008 OVC017 73.4 71.6 94% 29.82 0.0 0.67
10 23:35 W 7 G 23 10.00 Thunderstorm in Vicinity SCT020 BKN030 OVC039 78.8 69.8 74% 81 29.82 0.0
10 23:15 S 10 G 16 10.00 Thunderstorm in Vicinity SCT032 BKN037 BKN060 80.6 73.4 79% 85 29.79 0.0
10 22:55 S 7 G 10 10.00 Partly Cloudy SCT060 80.6 73.4 79% 85 29.77 0.0
Date Time (edt) Wind (mph) Vis. (mi.) Weather Sky Cond. Air Dwpt Max. Min. Relative Humidity Wind Chill (°F) Heat Index (°F) altimeter (in) sea level (mb) 1 hr 3 hr 6 hr
6 hour
Temperature (ºF) Pressure Precipitation (in)